Flag for U.S.A. Weather for the Past 2 Weeks in Bryan – College Station, Texas, U.S.A.

Now
61 °F

Passing clouds.


Feels Like: 61 °F
Forecast: 58 / 73 °F
Wind: 13 mph from Southeast

Location: Easterwood Field

Current Time: Feb 13, 2016 at 9:59:33 PM

Latest Report: Feb 13, 2016 at 8:53 PM


Visibility: 10 mi

Pressure: 30.19 "Hg

Humidity: 75%

Dew point: 53 °F

Location of Bryan – College StationLocation

Historic Weather in Bryan – College Station — Graph

°F

Bryan – College Station Temperature Yesterday

Maximum temperature yesterday: 77 °F (at 2:53 PM)
Minimum temperature yesterday: 51 °F (at 6:53 AM)
Average temperature yesterday: 63 °F

High & Low Weather Summary for the Past Weeks

 TemperatureHumidityPressure
High79 °F (Jan 31, 2:53 PM)100% (Feb 7, 7:53 AM)30.52 "Hg (Feb 7, 7:53 AM)
Low31 °F (Feb 7, 6:53 AM)13% (Feb 8, 2:53 PM)29.56 "Hg (Feb 1, 8:53 PM)
Average56 °F55%30.14 "Hg
* Reported Jan 29 7:53 PM — Feb 13 7:53 PM, Bryan – College Station, Weather by CustomWeather, © 2016

Note: Actual official high and low records may vary slightly from our data, if they occured in-between our weather recording intervals... More about our weather records

Advertising

Bryan – College Station Weather History for the Previous 24 Hours

 ConditionsComfort  
Time TempWeatherWind HumidityBarometerVisibility
7:53 PM
Sat, Feb 13
62 °FClear.13 mph73%30.19 "Hg10 mi
6:53 PM64 °FPassing clouds.15 mph70%30.18 "Hg10 mi
5:53 PM69 °FScattered clouds.9 mph61%30.18 "Hg10 mi
4:53 PM70 °FScattered clouds.13 mph59%30.19 "Hg10 mi
3:53 PM72 °FBroken clouds.7 mph55%30.20 "Hg10 mi
2:53 PM71 °FMostly cloudy.9 mph59%30.24 "Hg10 mi
1:53 PM69 °FOvercast.7 mph61%30.27 "Hg10 mi
12:53 PM69 °FSunny.9 mph59%30.30 "Hg10 mi
11:53 AM66 °FMostly cloudy.5 mph61%30.34 "Hg10 mi
10:53 AM66 °FPartly sunny.12 mph50%30.35 "Hg10 mi
9:53 AM60 °FPartly sunny.13 mph56%30.35 "Hg9 mi
8:53 AM58 °FPartly sunny.8 mph56%30.35 "Hg9 mi
7:53 AM53 °FPartly sunny.9 mph64%30.35 "Hg9 mi
6:53 AM53 °FPassing clouds.8 mph64%30.34 "Hg10 mi
5:53 AM54 °FPassing clouds.8 mph62%30.32 "Hg10 mi
4:53 AM54 °FPassing clouds.6 mph62%30.31 "Hg10 mi
3:53 AM54 °FClear.8 mph64%30.29 "Hg10 mi
2:53 AM55 °FClear.6 mph64%30.29 "Hg10 mi
1:53 AM55 °FClear.6 mph67%30.29 "Hg10 mi
12:53 AM57 °FClear.6 mph60%30.29 "Hg10 mi
11:53 PM
Fri, Feb 12
61 °FClear.9 mph52%30.28 "Hg10 mi
10:53 PM62 °FClear.8 mph52%30.27 "Hg10 mi
9:53 PM64 °FClear.12 mph50%30.27 "Hg10 mi
Weather by CustomWeather, © 2016

See weather overviewHow to use our weather pages